[keps] orb08248.amsat
Ray Hoad
r.hoad at att.net
Thu Sep 4 20:38:53 PDT 2008
SB KEPS @ AMSAT $ORB08248.O
Orbital Elements 08248.OSCAR
HR AMSAT ORBITAL ELEMENTS FOR OSCAR SATELLITES
FROM WA5QGD FORT WORTH,TX September 4, 2008
Send Subscribe/unsubscribe to KEPS at
http://www.amsat.org/mailman/listinfo/keps
BID: ORB08248.O
TO ALL RADIO AMATEURS BT
Satellite: AO-07
Catalog number: 07530
Epoch time: 08247.58377066
Element set: 268
Inclination: 101.4617 deg
RA of node: 276.4448 deg
Eccentricity: 0.0012178
Arg of perigee: 108.7074 deg
Mean anomaly: 251.5331 deg
Mean motion: 12.53574007 rev/day
Decay rate: -2.7e-07 rev/day^2
Epoch rev: 54680
Checksum: 300
Satellite: AO-10
Catalog number: 14129
Epoch time: 08247.38126761
Element set: 555
Inclination: 026.0283 deg
RA of node: 197.4263 deg
Eccentricity: 0.5966679
Arg of perigee: 153.9315 deg
Mean anomaly: 255.4605 deg
Mean motion: 02.05869484 rev/day
Decay rate: -2.22e-06 rev/day^2
Epoch rev: 18971
Checksum: 332
Satellite: UO-11
Catalog number: 14781
Epoch time: 08247.56208991
Element set: 758
Inclination: 098.1483 deg
RA of node: 282.7451 deg
Eccentricity: 0.0009156
Arg of perigee: 174.8847 deg
Mean anomaly: 185.2405 deg
Mean motion: 14.79661995 rev/day
Decay rate: 1.13e-06 rev/day^2
Epoch rev: 31544
Checksum: 340
Satellite: RS-15
Catalog number: 23439
Epoch time: 08247.86068918
Element set: 0158
Inclination: 064.8189 deg
RA of node: 007.8251 deg
Eccentricity: 0.0146620
Arg of perigee: 107.7181 deg
Mean anomaly: 253.9807 deg
Mean motion: 11.27552922 rev/day
Decay rate: -3.9e-07 rev/day^2
Epoch rev: 56383
Checksum: 330
Satellite: FO-29
Catalog number: 24278
Epoch time: 08247.80750035
Element set: 854
Inclination: 098.5793 deg
RA of node: 153.7864 deg
Eccentricity: 0.0351137
Arg of perigee: 012.1772 deg
Mean anomaly: 348.7587 deg
Mean motion: 13.52938974 rev/day
Decay rate: -5.0e-07 rev/day^2
Epoch rev: 59502
Checksum: 346
Satellite: SO-33
Catalog number: 25509
Epoch time: 08246.28789264
Element set: 272
Inclination: 031.4323 deg
RA of node: 240.4001 deg
Eccentricity: 0.0354693
Arg of perigee: 341.2127 deg
Mean anomaly: 017.5827 deg
Mean motion: 14.28221526 rev/day
Decay rate: 6.0e-07 rev/day^2
Epoch rev: 51464
Checksum: 281
Satellite: AO-40
Catalog number: 26609
Epoch time: 08248.41862120
Element set: 113
Inclination: 007.7519 deg
RA of node: 062.7041 deg
Eccentricity: 0.7932680
Arg of perigee: 119.3622 deg
Mean anomaly: 339.6226 deg
Mean motion: 01.25585628 rev/day
Decay rate: -3.72e-06 rev/day^2
Epoch rev: 3603
Checksum: 294
Satellite: VO-52
Catalog number: 28650
Epoch time: 08247.21364239
Element set: 0022
Inclination: 097.7820 deg
RA of node: 311.6567 deg
Eccentricity: 0.0026116
Arg of perigee: 245.3235 deg
Mean anomaly: 114.5375 deg
Mean motion: 14.81494941 rev/day
Decay rate: 2.03e-06 rev/day^2
Epoch rev: 18015
Checksum: 286
Satellite: PO-63
Catalog number: 29712
Epoch time: 08248.78778429
Element set: 767
Inclination: 097.8689 deg
RA of node: 305.4559 deg
Eccentricity: 0.0015208
Arg of perigee: 120.4303 deg
Mean anomaly: 239.8410 deg
Mean motion: 14.80253509 rev/day
Decay rate: 2.89e-06 rev/day^2
Epoch rev: 8924
Checksum: 347
/EX
SB KEPS @ AMSAT $ORB08248.D
Orbital Elements 08248.MICROS
HR AMSAT ORBITAL ELEMENTS FOR THE MICROSATS
FROM WA5QGD FORT WORTH,TX September 4, 2008
Send Subscribe/unsubscribe to KEPS at
http://www.amsat.org/mailman/listinfo/keps
BID: ORB08248.D
TO ALL RADIO AMATEURS BT
Satellite: AO-16
Catalog number: 20439
Epoch time: 08248.52727897
Element set: 409
Inclination: 098.2388 deg
RA of node: 224.5665 deg
Eccentricity: 0.0010269
Arg of perigee: 305.1182 deg
Mean anomaly: 054.9044 deg
Mean motion: 14.31801782 rev/day
Decay rate: -8.0e-08 rev/day^2
Epoch rev: 97227
Checksum: 322
Satellite: LO-19
Catalog number: 20442
Epoch time: 08247.51337584
Element set: 332
Inclination: 098.2074 deg
RA of node: 231.8989 deg
Eccentricity: 0.0011202
Arg of perigee: 304.8568 deg
Mean anomaly: 055.1548 deg
Mean motion: 14.32039308 rev/day
Decay rate: -9.2e-07 rev/day^2
Epoch rev: 97228
Checksum: 309
Satellite: AO-27
Catalog number: 22825
Epoch time: 08248.51892816
Element set: 55
Inclination: 098.3940 deg
RA of node: 205.5967 deg
Eccentricity: 0.0008877
Arg of perigee: 032.9259 deg
Mean anomaly: 327.2494 deg
Mean motion: 14.29245380 rev/day
Decay rate: -7.4e-07 rev/day^2
Epoch rev: 77910
Checksum: 343
Satellite: IO-26
Catalog number: 22826
Epoch time: 08248.69915209
Element set: 764
Inclination: 098.3846 deg
RA of node: 206.6437 deg
Eccentricity: 0.0009550
Arg of perigee: 027.7020 deg
Mean anomaly: 332.4669 deg
Mean motion: 14.29495420 rev/day
Decay rate: -9.0e-08 rev/day^2
Epoch rev: 77922
Checksum: 333
Satellite: GO-32
Catalog number: 25397
Epoch time: 08248.83866503
Element set: 688
Inclination: 098.3582 deg
RA of node: 280.0461 deg
Eccentricity: 0.0001660
Arg of perigee: 046.3325 deg
Mean anomaly: 313.7992 deg
Mean motion: 14.23148480 rev/day
Decay rate: 1.33e-06 rev/day^2
Epoch rev: 52754
Checksum: 315
Satellite: NO-44
Catalog number: 26931
Epoch time: 08247.57538140
Element set: 0968
Inclination: 067.0504 deg
RA of node: 082.7180 deg
Eccentricity: 0.0007281
Arg of perigee: 264.8905 deg
Mean anomaly: 095.1341 deg
Mean motion: 14.29531139 rev/day
Decay rate: -1.55e-06 rev/day^2
Epoch rev: 36161
Checksum: 306
Satellite: SO-50
Catalog number: 27607
Epoch time: 08248.32445849
Element set: 690
Inclination: 064.5594 deg
RA of node: 173.2946 deg
Eccentricity: 0.0086263
Arg of perigee: 264.2203 deg
Mean anomaly: 094.9062 deg
Mean motion: 14.71377113 rev/day
Decay rate: -8.7e-07 rev/day^2
Epoch rev: 30661
Checksum: 320
Satellite: CO-55
Catalog number: 27844
Epoch time: 08247.54694445
Element set: 387
Inclination: 098.7183 deg
RA of node: 254.7321 deg
Eccentricity: 0.0008898
Arg of perigee: 250.5163 deg
Mean anomaly: 109.5074 deg
Mean motion: 14.20594694 rev/day
Decay rate: 4.9e-07 rev/day^2
Epoch rev: 26856
Checksum: 351
Satellite: CO-57
Catalog number: 27848
Epoch time: 08247.55558718
Element set: 338
Inclination: 098.7186 deg
RA of node: 253.8228 deg
Eccentricity: 0.0008985
Arg of perigee: 254.1783 deg
Mean anomaly: 105.8436 deg
Mean motion: 14.20402777 rev/day
Decay rate: 3.0e-07 rev/day^2
Epoch rev: 26853
Checksum: 348
Satellite: AO-51
Catalog number: 28375
Epoch time: 08247.53322406
Element set: 189
Inclination: 098.0686 deg
RA of node: 267.6878 deg
Eccentricity: 0.0083290
Arg of perigee: 275.8088 deg
Mean anomaly: 083.3606 deg
Mean motion: 14.40617046 rev/day
Decay rate: -4.0e-08 rev/day^2
Epoch rev: 21968
Checksum: 338
Satellite: CO-56
Catalog number: 28941
Epoch time: 08248.80766562
Element set: 347
Inclination: 098.1163 deg
RA of node: 010.6428 deg
Eccentricity: 0.0155372
Arg of perigee: 111.1916 deg
Mean anomaly: 250.6166 deg
Mean motion: 15.60595836 rev/day
Decay rate: 3.6050e-04 rev/day^2
Epoch rev: 14244
Checksum: 314
Satellite: CP3
Catalog number: 31128
Epoch time: 08248.65428321
Element set: 423
Inclination: 098.0326 deg
RA of node: 308.7060 deg
Eccentricity: 0.0104193
Arg of perigee: 089.1898 deg
Mean anomaly: 272.1239 deg
Mean motion: 14.51972382 rev/day
Decay rate: -4.6e-07 rev/day^2
Epoch rev: 7346
Checksum: 302
Satellite: CP4
Catalog number: 31132
Epoch time: 08247.96319992
Element set: 0404
Inclination: 098.0355 deg
RA of node: 310.5869 deg
Eccentricity: 0.0087446
Arg of perigee: 084.3294 deg
Mean anomaly: 276.7859 deg
Mean motion: 14.55139307 rev/day
Decay rate: 2.7e-07 rev/day^2
Epoch rev: 07340
Checksum: 327
Satellite: CO-65
Catalog number: 32785
Epoch time: 08247.47252667
Element set: 0149
Inclination: 097.9866 deg
RA of node: 307.1742 deg
Eccentricity: 0.0013947
Arg of perigee: 240.1820 deg
Mean anomaly: 119.8010 deg
Mean motion: 14.81388145 rev/day
Decay rate: 2.08e-06 rev/day^2
Epoch rev: 01899
Checksum: 330
/EX
SB KEPS @ AMSAT $ORB08248.W
Orbital Elements 08248.WEATHER
HR AMSAT ORBITAL ELEMENTS FOR WEATHER SATELLITES
FROM WA5QGD FORT WORTH,TX September 4, 2008
Send Subscribe/unsubscribe to KEPS at
http://www.amsat.org/mailman/listinfo/keps
BID: ORB08248.W
TO ALL RADIO AMATEURS BT
Satellite: NOAA-10
Catalog number: 16969
Epoch time: 08248.15611200
Element set: 274
Inclination: 098.7192 deg
RA of node: 269.9587 deg
Eccentricity: 0.0011841
Arg of perigee: 314.8455 deg
Mean anomaly: 045.1763 deg
Mean motion: 14.27367600 rev/day
Decay rate: 6.2e-07 rev/day^2
Epoch rev: 14270
Checksum: 305
Satellite: NOAA-11
Catalog number: 19531
Epoch time: 08247.94663034
Element set: 307
Inclination: 098.7973 deg
RA of node: 336.1694 deg
Eccentricity: 0.0011170
Arg of perigee: 200.7779 deg
Mean anomaly: 159.2963 deg
Mean motion: 14.14876446 rev/day
Decay rate: 1.72e-06 rev/day^2
Epoch rev: 2904
Checksum: 319
Satellite: NOAA-12
Catalog number: 21263
Epoch time: 08248.51493250
Element set: 820
Inclination: 098.7701 deg
RA of node: 250.4725 deg
Eccentricity: 0.0011447
Arg of perigee: 254.9789 deg
Mean anomaly: 105.0125 deg
Mean motion: 14.25544794 rev/day
Decay rate: 1.9e-07 rev/day^2
Epoch rev: 89969
Checksum: 317
Satellite: MET-3/5
Catalog number: 21655
Epoch time: 08247.97332910
Element set: 0485
Inclination: 082.5510 deg
RA of node: 048.7073 deg
Eccentricity: 0.0013125
Arg of perigee: 171.6601 deg
Mean anomaly: 188.4741 deg
Mean motion: 13.17016488 rev/day
Decay rate: 5.1e-07 rev/day^2
Epoch rev: 81995
Checksum: 304
Satellite: MET-2/21
Catalog number: 22782
Epoch time: 08247.52584783
Element set: 0241
Inclination: 082.5448 deg
RA of node: 049.4175 deg
Eccentricity: 0.0024059
Arg of perigee: 071.5432 deg
Mean anomaly: 288.8342 deg
Mean motion: 13.83630151 rev/day
Decay rate: -2.2e-07 rev/day^2
Epoch rev: 75796
Checksum: 315
Satellite: OKEAN-4
Catalog number: 23317
Epoch time: 08248.69454483
Element set: 685
Inclination: 082.5360 deg
RA of node: 240.8732 deg
Eccentricity: 0.0020774
Arg of perigee: 222.1232 deg
Mean anomaly: 137.8428 deg
Mean motion: 14.82632349 rev/day
Decay rate: 1.53e-06 rev/day^2
Epoch rev: 75006
Checksum: 300
